Durango, CO

3:04 PM MDT on July 27, 2017 (GMT -0600)
Durango-La Plata County

Weather History for KDRO - June, 2012

Change the Weather History Date:

Wednesday, June 27, 2012

  Actual Average Record
Temperature  
Mean Temperature 74 °F 65 °F  
Max Temperature 89 °F 85 °F 98 °F (1990)
Min Temperature 58 °F 46 °F 35 °F (1985)
Degree Days  
Heating Degree Days 0 1  
Month to date heating degree days 25 112  
Since 1 June heating degree days 25 112  
Since 1 July heating degree days 6492 7120  
Cooling Degree Days 9 2  
Month to date cooling degree days 64 22  
Year to date cooling degree days 64 23  
Since 1 June cooling degree days 64 22  
Growing Degree Days 24 (Base 50)    
Moisture  
Dew Point 45 °F    
Average Humidity 40    
Maximum Humidity 64    
Minimum Humidity 16    
Precipitation  
Precipitation 0.03 in 0.03 in 0.10 in (1987)
Month to date precipitation 0.03 0.53  
Year to date precipitation 2.71 5.96  
Sea Level Pressure  
Sea Level Pressure 29.98 in    
Wind  
Wind Speed 6 mph (SSW)    
Max Wind Speed 30 mph    
Max Gust Speed 39 mph    
Visibility 10 miles    
Events Rain , Thunderstorm    
T = Trace of Precipitation, MM = Missing Value Source: NWS Daily Summary

Daily Weather History Graph

Daily Weather History Graph

Search for Another Location

Airport or City:

Trip Planner

Search our weather history database for the weather conditions in past years. The results will help you decide how hot, cold, wet, or windy it might be!

Date:

Astronomy

Jun. 27, 2012 Rise Set
Actual Time 5:53 AM MDT 8:35 PM MDT
Civil Twilight 5:22 AM MDT 9:06 PM MDT
Nautical Twilight 4:43 AM MDT 9:44 PM MDT
Astronomical Twilight 4:00 AM MDT 10:27 PM MDT
Moon 2:08 PM MDT 12:47 AM MDT
Length of Visible Light 15h 43m
Length of Day
14h 41m
First Quarter, 57% of the Moon is Illuminated
Jun 27
First Quarter
Jul 3
Full
Jul 10
Last Quarter
Jul 18
New
Jul 26
First Quarter

Hourly Weather History & Observations

Time (MDT) Temp. Dew Point Humidity Pressure Visibility Wind Dir Wind Speed Gust Speed Precip Events Conditions
12:53 AM 66.9 °F 48.9 °F 52% 29.86 in 10.0 mi North 6.9 mph - 0.00 in   Partly Cloudy
1:53 AM 64.9 °F 48.9 °F 56% 29.86 in 10.0 mi Calm Calm - N/A   Mostly Cloudy
2:53 AM 64.0 °F 48.9 °F 58% 29.86 in 10.0 mi Calm Calm - N/A   Clear
3:53 AM 61.0 °F 46.9 °F 60% 29.87 in 10.0 mi NNE 5.8 mph - N/A   Clear
4:53 AM 60.1 °F 48.0 °F 64% 29.88 in 10.0 mi East 3.5 mph - N/A   Scattered Clouds
5:53 AM 60.1 °F 48.9 °F 67% 29.90 in 10.0 mi East 3.5 mph - N/A   Clear
6:53 AM 61.0 °F 48.9 °F 64% 29.91 in 10.0 mi NNE 5.8 mph - N/A   Clear
7:53 AM 68.0 °F 48.0 °F 49% 29.92 in 10.0 mi NNE 3.5 mph - N/A   Clear
8:53 AM 73.0 °F 46.9 °F 39% 29.92 in 10.0 mi Variable 5.8 mph - N/A   Clear
9:53 AM 73.0 °F 48.0 °F 41% 29.96 in 8.0 mi Calm Calm - 0.01 in Rain Light Rain
10:53 AM 79.0 °F 44.1 °F 29% 29.95 in 10.0 mi Variable 4.6 mph - 0.00 in   Partly Cloudy
11:53 AM 81.0 °F 42.1 °F 25% 29.94 in 10.0 mi Calm Calm - N/A   Clear
12:53 PM 84.9 °F 39.9 °F 20% 29.92 in 10.0 mi WSW 12.7 mph 16.1 mph N/A   Clear
1:53 PM 89.1 °F 37.0 °F 16% 29.89 in 10.0 mi SW 13.8 mph 27.6 mph N/A   Partly Cloudy
2:53 PM 86.0 °F 37.0 °F 18% 29.89 in 10.0 mi West 11.5 mph 20.7 mph N/A   Scattered Clouds
3:53 PM 82.0 °F 34.0 °F 18% 29.92 in 10.0 mi WSW 6.9 mph - 0.00 in   Mostly Cloudy
4:53 PM 84.9 °F 33.1 °F 16% 29.91 in 10.0 mi SSW 11.5 mph 23.0 mph N/A   Clear
5:53 PM 84.9 °F 33.1 °F 16% 29.91 in 10.0 mi Calm Calm - N/A   Partly Cloudy
6:18 PM 80.6 °F 39.2 °F 23% 30.19 in 10.0 mi SE 17.3 mph 25.3 mph N/A Thunderstorm Overcast
6:37 PM 78.8 °F 42.8 °F 28% 30.23 in 10.0 mi South 20.7 mph 39.1 mph N/A   Overcast
6:49 PM 73.4 °F 48.2 °F 41% 30.22 in 10.0 mi South 16.1 mph 28.8 mph 0.00 in Rain , Thunderstorm Light Rain
6:53 PM 73.0 °F 48.9 °F 42% 29.97 in 10.0 mi South 19.6 mph 28.8 mph 0.00 in Rain , Thunderstorm Light Rain
7:12 PM 71.6 °F 46.4 °F 41% 30.26 in 10.0 mi SSW 15.0 mph - 0.00 in   Overcast
7:53 PM 71.1 °F 48.9 °F 45% 30.03 in 10.0 mi WSW 10.4 mph 20.7 mph 0.00 in   Overcast
8:53 PM 66.0 °F 53.1 °F 63% 30.07 in 10.0 mi NW 6.9 mph - 0.00 in   Overcast
9:53 PM 66.0 °F 53.1 °F 63% 30.07 in 10.0 mi NNE 10.4 mph - 0.02 in   Overcast
10:53 PM 66.9 °F 50.0 °F 54% 30.00 in 10.0 mi NE 3.5 mph - 0.00 in   Partly Cloudy
11:53 PM 64.9 °F 50.0 °F 58% 29.99 in 10.0 mi Calm Calm - N/A   Clear